DateTimeUTC,F1_A11,F1_S11,BsB_S11,BsG_S11,BsR_S11,BbsB_S11,BbsG_S11,BbsR_S11,BaB_A11,BaG_A11,BaR_A11,Tu_S11,T_S11,Uu_S11,U_S11,P_S11,T1_A11
2021-02-01T20:00:00Z,00000200,21000000,,,,,,,-000.17,-000.06,0000.26,16.5,23.5,,00.0,0624.5,31.0
2021-02-01T20:01:00Z,00000200,21000000,,,,,,,-000.08,-000.18,-000.03,16.4,23.5,,00.0,0624.5,31.0
2021-02-01T20:02:00Z,00000200,21000000,,,,,,,0000.30,0000.12,0000.08,16.4,23.5,,00.0,0624.6,31.0
2021-02-01T20:03:00Z,00000200,61000000,,,,,,,-000.24,0000.03,-000.27,16.4,23.5,,00.0,0624.6,30.9
2021-02-01T20:04:00Z,00000200,41000000,-000.13,0000.25,-000.10,0000.00,0000.08,-000.17,0000.10,-000.27,0000.33,16.7,23.4,,00.0,0625.4,31.0
2021-02-01T20:05:00Z,00000200,01000000,-000.36,0000.36,-000.19,0000.33,0000.21,-000.12,0000.26,0000.38,0000.11,16.7,23.4,,00.0,0625.4,31.0
2021-02-01T20:06:00Z,00000200,01000000,-000.09,0000.16,-000.10,-000.10,0000.02,-000.15,0000.16,0000.37,0000.08,16.7,23.4,,00.0,0625.4,30.9
2021-02-01T20:07:00Z,00000200,01000000,-000.01,0000.41,-000.22,-000.19,0000.20,-000.06,-000.17,-000.15,-000.37,16.6,23.3,,00.0,0625.4,30.9
2021-02-01T20:08:00Z,00000200,01000000,0000.01,-000.05,0000.14,-000.14,-000.05,0000.40,-000.19,0000.10,0000.51,16.6,23.3,,00.0,0625.4,30.9
2021-02-01T20:09:00Z,00000200,01000000,-000.81,0000.13,-000.15,0000.30,0000.14,-000.31,-000.04,-000.52,-000.50,16.5,23.3,,00.0,0625.5,30.9
2021-02-01T20:10:00Z,00000200,01000000,0000.61,0000.04,-000.20,-000.09,0000.22,-000.03,0000.34,0000.17,0000.38,16.5,23.3,,00.0,0625.5,30.9
2021-02-01T20:11:00Z,00000200,01000000,0000.25,0000.21,-000.05,-000.39,0000.19,-000.05,0000.03,0000.52,-000.07,16.4,23.2,,00.0,0625.5,30.9
2021-02-01T20:12:00Z,00000200,01000000,-000.44,-000.12,-000.12,-000.05,0000.12,-000.23,-000.09,-000.10,0000.09,16.4,23.2,,00.0,0625.5,30.9
2021-02-01T20:13:00Z,00000200,01000000,0000.52,-000.15,-000.05,0000.05,0000.04,-000.21,0000.48,0000.20,0000.23,16.3,23.2,,00.0,0625.5,30.9
2021-02-01T20:14:00Z,00000200,01000000,-000.42,0000.04,0000.05,0000.30,0000.16,0000.04,0000.16,0000.50,0000.07,16.3,23.2,,00.0,0625.4,30.9
2021-02-01T20:15:00Z,00000200,01000000,-000.40,0000.28,-000.27,-000.14,0000.03,-000.16,0000.27,-000.53,-000.39,16.2,23.1,,00.0,0625.4,30.9
2021-02-01T20:16:00Z,00000200,01000000,0000.13,0000.26,0000.26,0000.03,-000.05,-000.07,0000.38,0000.58,0000.62,16.2,23.1,,00.0,0625.3,30.9
2021-02-01T20:17:00Z,00000200,01000000,0000.41,0000.13,-000.28,-000.24,-000.05,-000.19,0000.08,0000.18,0000.20,16.3,23.1,,00.0,0625.3,30.9
2021-02-01T20:18:00Z,00000200,01000000,-000.34,0000.04,-000.03,0000.05,0000.24,-000.24,0000.36,0000.28,0000.01,16.3,23.1,,00.0,0625.4,30.9
2021-02-01T20:19:00Z,00000200,01000000,-000.20,0000.21,-000.16,-000.09,0000.58,0000.06,-000.46,-000.55,0000.05,16.4,23.1,,00.0,0625.4,30.9
2021-02-01T20:20:00Z,00000200,01000000,-000.66,0000.07,0000.10,-000.11,0000.00,-000.07,0000.10,0000.56,-000.23,16.4,23.1,,00.0,0625.4,30.9
2021-02-01T20:21:00Z,00000200,01000000,-000.08,0000.19,-000.07,-000.03,0000.21,-000.18,-000.13,-000.17,-000.06,16.3,23.1,,00.0,0625.4,30.9
2021-02-01T20:22:00Z,00000200,01000000,-000.16,-000.15,-000.34,-000.61,-000.01,-000.03,0000.04,-000.09,0000.17,16.3,23.1,,00.0,0625.4,30.9
2021-02-01T20:23:00Z,00000200,01000000,0000.01,0000.11,-000.44,-000.06,-000.05,-000.00,-000.13,-000.24,0000.13,16.2,23.1,,00.0,0625.4,30.9
2021-02-01T20:24:00Z,00000200,01000000,0000.45,0000.19,0000.05,0000.12,0000.17,-000.09,0000.31,0000.26,-000.15,16.2,23.0,,00.0,0625.4,30.9
2021-02-01T20:25:00Z,00000200,01000000,-000.18,0000.36,0000.20,0000.04,0000.18,-000.25,-000.09,-000.19,0000.03,16.2,23.0,,00.0,0625.4,30.9
2021-02-01T20:26:00Z,00000200,01000000,0000.08,0000.24,-000.07,-000.02,0000.06,-000.32,0000.30,0000.53,-000.09,16.1,23.0,,00.0,0625.4,30.9
2021-02-01T20:27:00Z,00000200,01000000,-000.05,-000.08,-000.01,0000.24,-000.00,-000.29,0000.06,0000.01,0000.40,16.1,22.9,,00.0,0625.4,30.9
2021-02-01T20:28:00Z,00000200,01000000,0000.35,-000.08,-000.13,0000.33,-000.08,-000.27,0000.32,0000.34,0000.28,16.0,22.9,,00.0,0625.4,30.9
2021-02-01T20:29:00Z,00000200,01000000,0000.40,0000.05,-000.25,-000.14,-000.08,-000.17,0000.07,-000.10,-000.05,16.0,22.9,,00.0,0625.4,30.9
2021-02-01T20:30:00Z,00000200,01000000,0000.43,0000.10,0000.07,-000.28,-000.01,0000.05,-000.27,-000.38,-000.28,15.9,22.9,,00.0,0625.4,30.9
2021-02-01T20:31:00Z,00000200,01000000,-000.19,0000.18,-000.07,0000.53,0000.01,-000.19,-000.06,-000.08,0000.17,15.9,22.9,,00.0,0625.4,30.9
2021-02-01T20:32:00Z,00000200,01000000,0000.03,-000.09,-000.04,-000.55,0000.16,-000.12,0000.12,0000.48,-000.01,16.0,22.9,,00.0,0625.5,30.9
2021-02-01T20:33:00Z,00000200,01000000,-000.57,-000.03,-000.11,0000.22,0000.09,0000.23,0000.13,0000.05,0000.17,16.0,22.9,,00.0,0625.5,30.9
2021-02-01T20:34:00Z,00000200,01000000,-000.08,0000.25,-000.04,-000.30,0000.38,-000.02,0000.16,0000.06,-000.09,16.1,22.9,,00.0,0625.5,30.9
2021-02-01T20:35:00Z,00000200,01000000,-000.09,0000.16,-000.48,0000.14,-000.07,-000.56,-000.13,-000.11,0000.11,16.2,23.0,,00.0,0625.5,30.9
2021-02-01T20:36:00Z,00000200,01000000,-000.44,0000.06,-000.05,-000.10,0000.02,0000.07,-000.15,0000.04,0000.01,16.3,23.0,,00.0,0625.5,30.9
2021-02-01T20:37:00Z,00000200,01000000,-000.21,0000.41,0000.02,0000.37,0000.13,-000.04,0000.28,0000.10,0000.11,16.3,23.0,,00.0,0625.5,30.9
2021-02-01T20:38:00Z,00000200,01000000,0000.44,0000.11,0000.10,0000.17,0000.30,0000.01,0000.13,0000.22,-000.09,16.3,23.0,,00.0,0625.5,30.9
2021-02-01T20:39:00Z,00000200,01000000,0000.29,-000.04,0000.06,-000.19,-000.08,-000.15,-000.18,-000.41,0000.13,16.2,23.0,,00.0,0625.5,30.9
2021-02-01T20:40:00Z,00000200,01000000,0000.48,-000.26,-000.08,-000.06,0000.19,-000.13,0000.28,0000.34,-000.02,16.2,22.9,,00.0,0625.5,30.9
2021-02-01T20:41:00Z,00000200,01000000,0000.43,-000.15,0000.05,0000.25,-000.07,-000.26,-000.52,-000.23,0000.05,16.1,22.9,,00.0,0625.6,30.9
2021-02-01T20:42:00Z,00000200,01000000,-000.04,0000.04,-000.24,-000.12,0000.01,0000.05,0000.52,0000.06,-000.18,16.1,22.9,,00.0,0625.6,30.9
2021-02-01T20:43:00Z,00000200,01000000,-000.12,-000.03,-000.07,0000.17,0000.11,-000.02,-000.30,0000.10,0000.02,16.0,22.9,,00.0,0625.6,30.9
2021-02-01T20:44:00Z,00000200,01000000,-000.25,0000.24,0000.08,0000.29,0000.35,0000.04,-000.25,-000.23,-000.26,16.0,22.9,,00.0,0625.6,30.9
2021-02-01T20:45:00Z,00000200,01000000,0000.37,0000.01,0000.12,0000.11,0000.14,0000.04,-000.03,-000.48,0000.09,16.0,22.8,,00.0,0625.6,30.9
2021-02-01T20:46:00Z,00000200,01000000,-000.02,-000.03,-000.16,0000.33,-000.04,0000.03,0000.22,0000.21,-000.04,16.0,22.8,,00.0,0625.6,30.9
2021-02-01T20:47:00Z,00000200,01000000,0000.33,0000.18,0000.10,-000.05,0000.03,-000.15,-000.07,0000.68,0000.28,16.0,22.8,,00.0,0625.6,30.9
2021-02-01T20:48:00Z,00000200,01000000,0000.19,0000.15,-000.35,-000.36,-000.01,-000.11,0000.36,0000.07,0000.50,16.1,22.8,,00.0,0625.6,30.9
2021-02-01T20:49:00Z,00000200,01000000,-000.28,0000.03,0000.09,-000.09,-000.21,-000.07,0000.11,0000.06,-000.40,16.2,22.9,,00.0,0625.6,30.9
2021-02-01T20:50:00Z,00000200,01000000,0000.12,0000.09,-000.16,0000.52,0000.05,0000.08,0000.25,0000.17,0000.13,16.2,22.9,,00.0,0625.6,30.9
2021-02-01T20:51:00Z,00000200,01000000,0000.24,0000.08,0000.03,0000.20,0000.05,-000.20,-000.00,-000.27,0000.01,16.3,23.0,,00.0,0625.6,30.9
2021-02-01T20:52:00Z,00000200,01000000,0000.10,-000.12,0000.15,-000.07,0000.07,-000.09,-000.41,0000.09,0000.29,16.4,23.0,,00.0,0625.6,30.9
2021-02-01T20:53:00Z,00000200,01000000,-000.40,0000.20,-000.18,0000.13,0000.18,-000.10,0000.23,0000.48,-000.23,16.4,23.0,,00.0,0625.6,30.9
2021-02-01T20:54:00Z,00000200,01010000,0000.01,0000.29,-000.15,0000.09,0000.14,0000.09,0000.08,-000.35,0000.19,16.4,23.0,,00.0,0625.6,30.9
2021-02-01T20:55:00Z,00000200,01000000,0000.35,0000.15,0000.03,0000.60,0000.18,-000.10,-000.18,0000.17,-000.02,16.3,23.0,,00.0,0625.6,30.9
2021-02-01T20:56:00Z,00000200,01000000,-000.20,0000.11,-000.05,-000.17,0000.00,0000.00,0000.04,-000.22,-000.06,16.3,23.0,,00.0,0625.6,30.9
2021-02-01T20:57:00Z,00000200,41000000,,,,,,,0000.45,0000.19,-000.19,16.3,23.0,,00.0,0625.7,30.9
2021-02-01T20:58:00Z,00000200,61000000,,,,,,,-000.47,-000.62,-000.02,15.8,23.1,,00.0,0624.7,30.9
2021-02-01T20:59:00Z,00000200,21000000,,,,,,,-000.35,0000.14,-000.10,15.8,23.2,,00.0,0624.7,30.9
